Flag for Romania Weather past 2 weeks in Cluj-Napoca, Romania

Now
68 °F

Partly sunny.


Feels Like: 68 °F
Forecast: 53 / 63 °F
Wind: 2 mph from North

Location: Cluj Airport-Napoca

Current Time: Apr 27, 2015 at 8:57:28 PM

Latest Report: Apr 27, 2015 at 8:30 PM


Visibility: N/A

Pressure: 29.80 "Hg

Humidity: 49%

Dew point: 48 °F

Location of Cluj-NapocaLocation

Historic Weather in Cluj-Napoca — Graph

°F

Cluj-Napoca temperature yesterday

Maximum temperature yesterday: 75 °F (at 4:00 PM)
Minimum temperature yesterday: 41 °F (at 6:30 AM)
Average temperature yesterday: 60 °F

Past Weeks' High & Low Weather Summary

 TemperatureHumidityPressure
High77 °F (Apr 16, 3:30 PM)100% (Apr 18, 1:00 AM)30.30 "Hg (Apr 18, 1:00 AM)
Low30 °F (Apr 23, 6:00 AM)18% (Apr 16, 3:30 PM)29.71 "Hg (Apr 18, 5:00 AM)
Average54 °F54%30.02 "Hg
* Reported Apr 12 7:00 PM — Apr 27 7:30 PM, Cluj-Napoca, Weather by CustomWeather, © 2015

Note: Actual official high and low records may vary slightly from our data, if they occured in-between our weather recording intervals... More about our weather records

Advertising

Cluj-Napoca weather history for previous 24 hours

 ConditionsComfort  
Time TempWeatherWind HumidityBarometerVisibility
7:30 PM
Mon, Apr 27
70 °FScattered clouds.6 mph43%29.80 "HgN/A
7:00 PM72 °FScattered clouds.8 mph38%29.80 "HgN/A
6:30 PM73 °FPassing clouds.5 mph31%29.80 "HgN/A
6:00 PM75 °FPassing clouds.5 mph29%29.83 "HgN/A
5:30 PM75 °FPassing clouds.6 mph34%29.83 "HgN/A
5:00 PM75 °FScattered clouds.8 mph34%29.83 "HgN/A
4:30 PM73 °FScattered clouds.9 mph36%29.83 "HgN/A
4:00 PM73 °FScattered clouds.3 mph38%29.83 "HgN/A
3:30 PM72 °FScattered clouds.7 mph41%29.86 "HgN/A
3:00 PM73 °FScattered clouds.5 mph33%29.86 "HgN/A
2:30 PM73 °FScattered clouds.6 mph36%29.86 "HgN/A
2:00 PM72 °FScattered clouds.12 mph44%29.86 "HgN/A
1:30 PM73 °FScattered clouds.5 mph36%29.86 "HgN/A
1:00 PM73 °FScattered clouds.8 mph38%29.86 "HgN/A
12:30 PM72 °FScattered clouds.6 mph41%29.89 "HgN/A
12:00 PM72 °FPassing clouds.7 mph38%29.89 "HgN/A
11:30 AM70 °FPassing clouds.3 mph40%29.89 "HgN/A
11:00 AM70 °FPassing clouds.5 mph46%29.89 "HgN/A
10:30 AM66 °FPassing clouds.3 mph60%29.89 "HgN/A
10:00 AM63 °FPassing clouds.1 mph64%29.89 "HgN/A
9:30 AM59 °FPassing clouds.No wind68%29.89 "HgN/A
9:00 AM59 °FSunny.No wind68%29.89 "Hg10 mi
8:30 AM55 °FPassing clouds.No wind77%29.89 "HgN/A
8:00 AM52 °FPassing clouds.No wind88%29.89 "HgN/A
7:30 AM50 °FPassing clouds.No wind94%29.89 "HgN/A
7:00 AM48 °FPassing clouds.2 mph100%29.89 "HgN/A
6:30 AM48 °FPassing clouds.1 mph100%29.89 "HgN/A
6:00 AM50 °FClear.No wind100%29.89 "Hg10 mi
5:30 AM50 °FClear.No wind100%29.89 "Hg10 mi
5:00 AM52 °FClear.No wind94%29.86 "Hg10 mi
4:00 AM54 °FClear.No wind94%29.86 "Hg10 mi
3:00 AM55 °FLight rain. Passing clouds.3 mph88%29.86 "HgN/A
2:00 AM57 °FPassing clouds.1 mph72%29.89 "HgN/A
1:00 AM59 °FClear.3 mph68%29.89 "Hg10 mi
12:00 AM59 °FClear.1 mph68%29.89 "Hg10 mi
11:30 PM
Sun, Apr 26
59 °FClear.5 mph68%29.86 "Hg10 mi
11:00 PM59 °FPassing clouds.5 mph63%29.86 "HgN/A
10:30 PM59 °FPassing clouds.9 mph68%29.86 "HgN/A
10:00 PM59 °FClear.5 mph68%29.86 "Hg10 mi
9:30 PM61 °FClear.2 mph59%29.86 "Hg10 mi
9:00 PM64 °FSunny.2 mph52%29.83 "Hg10 mi
8:30 PM66 °FPassing clouds.14 mph49%29.83 "HgN/A
8:00 PM68 °FScattered clouds.14 mph43%29.83 "HgN/A
Weather by CustomWeather, © 2015

See weather overviewHow to use our weather pages